星链-11083 [DTC] (STARLINK-11083 [DTC] )

导读

STARLINK-11083是美国太空探索技术公司(SpaceX)旗下星链星座的成员,于2024年4月7日发射入轨,部署在近地轨道,轨道倾角约53°,近地点约546千米,远地点约548千米,目前状态仍在工作。 作为星链互联网星座的组成部分,它承担全球宽带互联网接入服务,可为网络基础设施薄弱地区提供高速网络接入,助力星链完成全球覆盖的组网目标,由SpaceX自主研发制造并运营。

基本信息
目录编号:
59424
目录名称:
STARLINK-11083
国际标识:
2024-065D
轨道中心:
EARTH
卫星名称:
星链-11083 [DTC]
卫星全名:
星链-11083 [DTC] (STARLINK-11083 [DTC] )
卫星状态:
在轨 (已飞行841 天)
发射日期:
2024-04-07 UTC
国别 :
美国 (US)
星等 :
--
轨道信息
数据来源 国际轨道数据
星历时间: 2026-07-27T09:44:02+0800
20小时前
查看轨道信息
半长轴: 6737.881km
偏心率: 0.0000615
轨道倾角: 53.158°
近地点辐角 103.653°
升交点赤经 126.857°
平近点角 256.456°
近地点: 359.329km
远地点: 360.159km
周期: 91.737分钟
每日圈数: 15.69704
详细信息
固有亮度:
5
最大亮度:
0.5
卫星平台:
Starlink v2.0 mini
覆盖范围:
全球
运营商:
太空探索技术公司
运营商所在国:
美国
制造商(研发单位):
太空探索技术公司
制造商所在国:
美国
使用方式:
暂无
卫星简介
星链(Starlink)计划是由太空探索技术公司(SpaceX)提出的一个巨型低轨卫星互联网星座项目,计划在2019年至2024年间在太空搭建由约1.2万颗卫星组成的“星链”网络,其中1584颗将部署在地球上空550千米处的近地轨道,并从2020年开始工作。该卫星仍在工作。
2D轨道图
3D轨道图
轨道高度分析图
轨道倾角分析图
轨道综合分析图
查看轨道综合分析图